KC5DAQ-28 Weather Reports


time (UTC)temp
C
wind
direction
speed
KPH
gust
KPH
rain 1hr
cm
rain 24hr
cm
rain mn
cm
humidity
%
barometer
mb
20260504190705 26 127 3.2 14.5 0.00 0.00 0.00 62 1007.4
20260504190603 26 176 6.4 14.5 0.00 0.00 0.00 62 1007.5
20260504190506 26 155 6.4 14.5 0.00 0.00 0.00 61 1007.4
20260504190401 26 135 9.7 14.5 0.00 0.00 0.00 61 1007.5
20260504190304 27 135 8.0 14.5 0.00 0.00 0.00 61 1007.4
20260504190202 27 172 4.8 11.3 0.00 0.00 0.00 62 1007.4
20260504190003 27 138 8.0 11.3 0.00 0.00 0.00 62 1007.3
20260504185903 27 138 8.0 11.3 0.00 0.00 0.00 62 1007.4
20260504185804 26 197 4.8 14.5 0.00 0.00 0.00 63 1007.4
20260504185701 26 166 4.8 14.5 0.00 0.00 0.00 61 1007.5
20260504185604 26 196 6.4 16.1 0.00 0.00 0.00 61 1007.6
20260504185502 26 179 6.4 16.1 0.00 0.00 0.00 62 1007.7
20260504185403 27 199 4.8 16.1 0.00 0.00 0.00 62 1007.7
20260504185304 26 196 4.8 17.7 0.00 0.00 0.00 62 1007.6
20260504185202 26 110 6.4 17.7 0.00 0.00 0.00 63 1007.6
20260504185101 26 179 8.0 17.7 0.00 0.00 0.00 62 1007.7
20260504185004 26 179 8.0 17.7 0.00 0.00 0.00 62 1007.7
20260504184902 26 162 8.0 17.7 0.00 0.00 0.00 62 1007.7
20260504184803 26 190 8.0 17.7 0.00 0.00 0.00 62 1007.7
20260504184703 26 175 9.7 17.7 0.00 0.00 0.00 60 1007.7
20260504184602 27 182 9.7 17.7 0.00 0.00 0.00 61 1007.6
20260504184503 27 130 9.7 17.7 0.00 0.00 0.00 61 1007.7
20260504184403 27 118 9.7 17.7 0.00 0.00 0.00 61 1007.7
20260504184304 27 125 8.0 16.1 0.00 0.00 0.00 61 1007.7
20260504184202 27 151 6.4 16.1 0.00 0.00 0.00 63 1007.8
20260504184104 26 142 4.8 16.1 0.00 0.00 0.00 62 1007.8
20260504184003 26 157 6.4 16.1 0.00 0.00 0.00 61 1007.8
20260504183904 26 190 6.4 16.1 0.00 0.00 0.00 61 1007.9
20260504183804 26 152 6.4 16.1 0.00 0.00 0.00 61 1007.9
20260504183703 26 206 8.0 16.1 0.00 0.00 0.00 61 1007.8
20260504183604 26 173 6.4 16.1 0.00 0.00 0.00 62 1007.8
20260504183502 26 158 4.8 16.1 0.00 0.00 0.00 62 1007.8
20260504183403 27 182 3.2 17.7 0.00 0.00 0.00 61 1007.7
20260504183302 27 171 6.4 17.7 0.00 0.00 0.00 61 1007.8
20260504183200 27 190 8.0 17.7 0.00 0.00 0.00 61 1007.8
20260504183059 27 113 6.4 17.7 0.00 0.00 0.00 62 1007.8
20260504182954 27 138 8.0 17.7 0.00 0.00 0.00 62 1007.8
20260504182851 26 137 8.0 17.7 0.00 0.00 0.00 61 1007.8
20260504182751 26 175 6.4 17.7 0.00 0.00 0.00 60 1007.9
20260504182649 26 161 8.0 17.7 0.00 0.00 0.00 61 1007.9
20260504182548 27 148 8.0 17.7 0.00 0.00 0.00 61 1008.0
20260504182447 26 120 8.0 17.7 0.00 0.00 0.00 61 1007.9
20260504182346 26 171 8.0 16.1 0.00 0.00 0.00 62 1007.9
20260504182248 26 157 6.4 16.1 0.00 0.00 0.00 62 1007.9
20260504182148 26 192 6.4 16.1 0.00 0.00 0.00 62 1007.8
20260504182046 26 158 4.8 19.3 0.00 0.00 0.00 63 1007.9
20260504181947 26 176 6.4 19.3 0.00 0.00 0.00 62 1007.8
20260504181848 26 186 6.4 19.3 0.00 0.00 0.00 62 1007.8
20260504181746 26 202 6.4 19.3 0.00 0.00 0.00 62 1007.9
20260504181648 26 164 8.0 19.3 0.00 0.00 0.00 62 1007.8
20260504181546 26 164 6.4 19.3 0.00 0.00 0.00 61 1007.9
20260504181446 26 127 4.8 19.3 0.00 0.00 0.00 61 1007.9
20260504181347 26 145 9.7 19.3 0.00 0.00 0.00 61 1007.9
20260504181247 26 179 9.7 19.3 0.00 0.00 0.00 61 1008.0
20260504181148 26 131 8.0 19.3 0.00 0.00 0.00 62 1008.1
20260504181047 26 120 4.8 17.7 0.00 0.00 0.00 63 1008.1
20260504180946 26 161 4.8 17.7 0.00 0.00 0.00 63 1008.1
20260504180848 26 166 8.0 17.7 0.00 0.00 0.00 62 1008.1
20260504180747 26 116 8.0 17.7 0.00 0.00 0.00 62 1008.2
20260504180647 26 169 6.4 17.7 0.00 0.00 0.00 62 1008.1
20260504180546 26 149 6.4 17.7 0.00 0.00 0.00 62 1008.2
20260504180447 26 175 8.0 19.3 0.00 0.00 0.00 62 1008.2
20260504180346 26 206 8.0 19.3 0.00 0.00 0.00 61 1008.2
20260504180246 26 182 8.0 19.3 0.00 0.00 0.00 61 1008.1
20260504180148 26 206 9.7 19.3 0.00 0.00 0.00 64 1008.2
20260504180047 26 220 6.4 19.3 0.00 0.00 0.00 64 1008.1
20260504175947 26 138 4.8 19.3 0.00 0.00 0.00 62 1008.2
20260504175847 26 175 4.8 19.3 0.00 0.00 0.00 62 1008.1
20260504175748 26 159 6.4 19.3 0.00 0.00 0.00 63 1008.2
20260504175647 26 159 11.3 19.3 0.00 0.00 0.00 63 1008.1
20260504175547 26 130 11.3 19.3 0.00 0.00 0.00 63 1008.2
20260504175447 26 161 8.0 14.5 0.00 0.00 0.00 63 1008.1
20260504175345 26 179 4.8 14.5 0.00 0.00 0.00 63 1008.3
20260504175246 26 151 4.8 14.5 0.00 0.00 0.00 63 1008.3
20260504175146 26 179 8.0 14.5 0.00 0.00 0.00 63 1008.3
20260504175047 26 183 8.0 14.5 0.00 0.00 0.00 62 1008.3
20260504174947 26 196 8.0 14.5 0.00 0.00 0.00 63 1008.3
20260504174846 26 161 8.0 14.5 0.00 0.00 0.00 63 1008.4
20260504174745 26 182 9.7 11.3 0.00 0.00 0.00 62 1008.4
20260504174647 26 141 9.7 11.3 0.00 0.00 0.00 63 1008.4
20260504174548 26 149 6.4 11.3 0.00 0.00 0.00 62 1008.4
20260504174447 26 165 8.0 11.3 0.00 0.00 0.00 63 1008.5
20260504174347 26 189 8.0 11.3 0.00 0.00 0.00 63 1008.5
20260504174245 26 166 6.4 11.3 0.00 0.00 0.00 62 1008.5
20260504174146 26 197 6.4 11.3 0.00 0.00 0.00 62 1008.6
20260504174045 26 189 4.8 11.3 0.00 0.00 0.00 61 1008.5
20260504173946 26 141 4.8 11.3 0.00 0.00 0.00 62 1008.5
20260504173845 26 185 6.4 11.3 0.00 0.00 0.00 61 1008.6
20260504173748 26 145 8.0 11.3 0.00 0.00 0.00 63 1008.6
20260504173647 26 127 4.8 11.3 0.00 0.00 0.00 62 1008.7
20260504173545 26 154 4.8 9.7 0.00 0.00 0.00 62 1008.8
20260504173446 26 117 4.8 16.1 0.00 0.00 0.00 63 1008.6
20260504173346 26 164 3.2 16.1 0.00 0.00 0.00 63 1008.6
20260504173246 26 168 4.8 16.1 0.00 0.00 0.00 63 1008.7
20260504173147 26 134 4.8 16.1 0.00 0.00 0.00 63 1008.7
20260504173046 26 128 6.4 16.1 0.00 0.00 0.00 63 1008.7
20260504172947 26 165 6.4 16.1 0.00 0.00 0.00 63 1008.7
20260504172846 26 141 6.4 16.1 0.00 0.00 0.00 63 1008.7
20260504172746 26 173 4.8 16.1 0.00 0.00 0.00 62 1008.7
20260504172647 26 179 8.0 16.1 0.00 0.00 0.00 61 1008.7
20260504172545 26 185 8.0 16.1 0.00 0.00 0.00 62 1008.7
20260504172446 26 158 4.8 14.5 0.00 0.00 0.00 63 1008.6
20260504172346 26 171 6.4 14.5 0.00 0.00 0.00 63 1008.6
20260504172247 26 118 4.8 14.5 0.00 0.00 0.00 64 1008.6
20260504172145 26 140 3.2 14.5 0.00 0.00 0.00 63 1008.7
20260504172045 25 140 6.4 14.5 0.00 0.00 0.00 63 1008.7
20260504171946 25 128 6.4 14.5 0.00 0.00 0.00 62 1008.8
20260504171840 25 172 8.0 14.5 0.00 0.00 0.00 61 1008.8
20260504171738 25 149 8.0 14.5 0.00 0.00 0.00 63 1008.8
20260504171637 25 147 6.4 14.5 0.00 0.00 0.00 63 1008.8
20260504171532 25 159 4.8 14.5 0.00 0.00 0.00 64 1008.9
20260504171431 25 141 4.8 14.5 0.00 0.00 0.00 64 1008.9
20260504171332 25 171 3.2 14.5 0.00 0.00 0.00 65 1009.0
20260504171231 25 159 4.8 16.1 0.00 0.00 0.00 65 1009.0
20260504171131 25 128 8.0 16.1 0.00 0.00 0.00 65 1009.1
20260504171032 25 149 6.4 16.1 0.00 0.00 0.00 64 1009.1
20260504170932 25 155 6.4 16.1 0.00 0.00 0.00 64 1009.2
20260504170831 25 173 4.8 16.1 0.00 0.00 0.00 63 1009.1
20260504170716 25 210 6.4 17.7 0.00 0.00 0.00 64 1009.2
20260504170603 25 188 4.8 17.7 0.00 0.00 0.00 64 1009.1
20260504170502 25 145 6.4 29.0 0.00 0.00 0.00 64 1009.2
20260504170405 25 138 8.0 29.0 0.00 0.00 0.00 64 1009.1
20260504170302 25 185 6.4 29.0 0.00 0.00 0.00 63 1009.1
20260504170203 25 189 8.0 29.0 0.00 0.00 0.00 63 1009.0
20260504160404 24 155 9.7 20.9 0.00 0.00 0.00 66 1009.7
20260504160302 24 168 11.3 20.9 0.00 0.00 0.00 66 1009.7
20260504160203 24 202 9.7 20.9 0.00 0.00 0.00 67 1009.8
20260504151102 23 154 6.4 17.7 0.00 0.00 0.00 69 1009.8
20260504151002 23 180 6.4 17.7 0.00 0.00 0.00 69 1009.8
20260504150904 23 175 6.4 17.7 0.00 0.00 0.00 69 1009.8
20260504150804 23 145 6.4 17.7 0.00 0.00 0.00 69 1009.8
20260504150702 23 165 8.0 22.5 0.00 0.00 0.00 69 1009.8
20260504150602 23 171 9.7 22.5 0.00 0.00 0.00 69 1009.9
20260504150504 23 121 9.7 22.5 0.00 0.00 0.00 69 1009.9
20260504150403 23 154 8.0 22.5 0.00 0.00 0.00 69 1009.8
20260504150302 23 149 6.4 22.5 0.00 0.00 0.00 68 1009.8
20260504150203 23 161 8.0 22.5 0.00 0.00 0.00 69 1009.8
20260504150104 23 186 9.7 22.5 0.00 0.00 0.00 69 1009.9
20260504141242 21 148 6.4 16.1 0.00 0.00 0.00 70 1009.9
20260504141142 21 165 8.0 16.1 0.00 0.00 0.00 70 1010.0
20260504141042 21 144 9.7 16.1 0.00 0.00 0.00 70 1009.9
20260504140941 21 102 8.0 16.1 0.00 0.00 0.00 70 1009.9
20260504140841 21 106 4.8 11.3 0.00 0.00 0.00 71 1009.9
20260504140740 21 102 6.4 11.3 0.00 0.00 0.00 70 1009.9
20260504140642 21 116 6.4 11.3 0.00 0.00 0.00 70 1009.9
20260504140542 21 116 6.4 11.3 0.00 0.00 0.00 70 1009.8
20260504140441 21 107 6.4 11.3 0.00 0.00 0.00 70 1009.8
20260504140342 21 151 6.4 11.3 0.00 0.00 0.00 70 1009.9
20260504140240 21 127 4.8 11.3 0.00 0.00 0.00 71 1010.0
20260504140142 21 164 3.2 11.3 0.00 0.00 0.00 71 1010.0
20260504130803 18 106 6.4 9.7 0.00 0.00 0.00 73 1009.9
20260504130702 18 121 4.8 8.0 0.00 0.00 0.00 74 1009.8
20260504130602 18 124 6.4 8.0 0.00 0.00 0.00 74 1009.8
20260504130502 18 125 4.8 8.0 0.00 0.00 0.00 74 1009.8
20260504130403 18 124 3.2 4.8 0.00 0.00 0.00 74 1009.8
20260504130301 18 123 3.2 4.8 0.00 0.00 0.00 74 1009.9
20260504130202 18 123 3.2 4.8 0.00 0.00 0.00 74 1009.9
20260504120302 16 142 0.0 6.4 0.00 0.00 0.00 78 1009.7
20260504120203 16 142 1.6 6.4 0.00 0.00 0.00 78 1009.6
20260504110704 15 148 0.0 0.0 0.00 0.00 0.00 81 1009.3
20260504110603 15 148 0.0 0.0 0.00 0.00 0.00 81 1009.3
20260504110502 15 148 0.0 0.0 0.00 0.00 0.00 81 1009.3
20260504110402 15 148 0.0 0.0 0.00 0.00 0.00 81 1009.3
20260504110302 15 148 0.0 0.0 0.00 0.00 0.00 81 1009.4
20260504110204 15 148 0.0 0.0 0.00 0.00 0.00 81 1009.4
20260504110103 15 148 0.0 0.0 0.00 0.00 0.00 81 1009.5
20260504100602 16 149 1.6 4.8 0.00 0.00 0.00 76 1009.6
20260504100505 16 151 1.6 4.8 0.00 0.00 0.00 76 1009.8
20260504100404 16 151 1.6 4.8 0.00 0.00 0.00 76 1009.8
20260504100302 16 149 1.6 4.8 0.00 0.00 0.00 76 1009.8
20260504100203 16 149 1.6 4.8 0.00 0.00 0.00 76 1009.9
20260504100103 16 149 1.6 4.8 0.00 0.00 0.00 76 1009.9
20260504090104 16 155 1.6 3.2 0.00 0.00 0.00 75 1010.2
20260504082002 16 162 1.6 4.8 0.00 0.00 0.00 75 1010.3
20260504081901 16 162 3.2 4.8 0.00 0.00 0.00 75 1010.3
20260504081803 16 162 3.2 4.8 0.00 0.00 0.00 75 1010.2
20260504081704 16 164 1.6 4.8 0.00 0.00 0.00 75 1010.3
20260504081603 16 164 1.6 4.8 0.00 0.00 0.00 75 1010.3
20260504081502 16 164 1.6 4.8 0.00 0.00 0.00 75 1010.4
20260504081403 16 164 1.6 4.8 0.00 0.00 0.00 75 1010.4
20260504081304 16 164 3.2 4.8 0.00 0.00 0.00 75 1010.4
20260504081202 16 165 1.6 4.8 0.00 0.00 0.00 75 1010.4
20260504081102 16 166 1.6 4.8 0.00 0.00 0.00 75 1010.3
20260504081004 16 166 1.6 4.8 0.00 0.00 0.00 75 1010.3
20260504080902 16 166 1.6 4.8 0.00 0.00 0.00 75 1010.3
20260504080803 16 166 1.6 4.8 0.00 0.00 0.00 76 1010.4
20260504080704 16 169 1.6 4.8 0.00 0.00 0.00 76 1010.3
20260504080603 16 169 1.6 4.8 0.00 0.00 0.00 76 1010.3
20260504080502 16 169 3.2 4.8 0.00 0.00 0.00 76 1010.3
20260504080403 16 172 3.2 4.8 0.00 0.00 0.00 76 1010.3
20260504080303 16 172 0.0 3.2 0.00 0.00 0.00 76 1010.4
20260504080203 16 175 0.0 0.0 0.00 0.00 0.00 76 1010.5
20260504070403 17 182 0.0 0.0 0.00 0.00 0.00 74 1011.7
20260504070303 17 183 0.0 0.0 0.00 0.00 0.00 74 1011.8
20260504070203 17 183 0.0 0.0 0.00 0.00 0.00 74 1011.8
20260504070104 17 183 0.0 0.0 0.00 0.00 0.00 74 1011.8
20260504060203 17 164 0.0 6.4 0.00 0.00 0.00 73 1012.1
20260504060104 17 164 0.0 6.4 0.00 0.00 0.00 73 1012.0
20260504050745 18 166 0.0 0.0 0.00 0.00 0.00 71 1012.3
20260504050644 18 166 0.0 0.0 0.00 0.00 0.00 71 1012.4
20260504050537 18 166 0.0 0.0 0.00 0.00 0.00 71 1012.4
20260504050434 18 166 0.0 0.0 0.00 0.00 0.00 71 1012.4
20260504050331 18 166 0.0 0.0 0.00 0.00 0.00 71 1012.4
20260504050232 18 166 0.0 0.0 0.00 0.00 0.00 71 1012.5
20260504050131 18 166 0.0 0.0 0.00 0.00 0.00 70 1012.4
20260504045931 18 166 0.0 0.0 0.00 0.00 0.00 70 1012.5
20260504045830 18 166 0.0 0.0 0.00 0.00 0.00 70 1012.4
20260504045731 18 166 0.0 0.0 0.00 0.00 0.00 70 1012.5
20260504045631 18 166 0.0 0.0 0.00 0.00 0.00 70 1012.4
20260504045531 18 166 0.0 0.0 0.00 0.00 0.00 70 1012.4
20260504045431 18 166 0.0 0.0 0.00 0.00 0.00 70 1012.5
20260504045330 18 166 0.0 0.0 0.00 0.00 0.00 70 1012.4
20260504045232 18 166 0.0 0.0 0.00 0.00 0.00 70 1012.4
20260504045131 18 166 0.0 0.0 0.00 0.00 0.00 70 1012.5
20260504045031 18 166 0.0 0.0 0.00 0.00 0.00 70 1012.4
20260504044932 18 166 0.0 0.0 0.00 0.00 0.00 70 1012.4
20260504044831 18 166 0.0 0.0 0.00 0.00 0.00 70 1012.4
20260504044730 18 166 0.0 0.0 0.00 0.00 0.00 70 1012.4
20260504044630 18 168 0.0 0.0 0.00 0.00 0.00 70 1012.3
20260504044531 18 168 0.0 0.0 0.00 0.00 0.00 70 1012.5
20260504044431 18 166 0.0 0.0 0.00 0.00 0.00 70 1012.4
20260504044331 18 168 0.0 0.0 0.00 0.00 0.00 69 1012.4
20260504044232 18 168 0.0 0.0 0.00 0.00 0.00 69 1012.4
20260504044131 18 168 0.0 0.0 0.00 0.00 0.00 69 1012.5
20260504044030 18 168 0.0 0.0 0.00 0.00 0.00 69 1012.5
20260504043931 18 168 0.0 0.0 0.00 0.00 0.00 69 1012.5
20260504043832 18 168 0.0 0.0 0.00 0.00 0.00 69 1012.6
20260504043731 18 168 0.0 0.0 0.00 0.00 0.00 69 1012.6
20260504043631 18 168 0.0 0.0 0.00 0.00 0.00 69 1012.5
20260504043531 18 168 0.0 0.0 0.00 0.00 0.00 68 1012.6
20260504043430 18 168 0.0 0.0 0.00 0.00 0.00 68 1012.5
20260504043328 18 168 0.0 0.0 0.00 0.00 0.00 68 1012.5
20260504043230 18 168 0.0 0.0 0.00 0.00 0.00 68 1012.5
20260504043128 18 168 0.0 1.6 0.00 0.00 0.00 68 1012.5
20260504043029 18 168 0.0 3.2 0.00 0.00 0.00 68 1012.4
20260504042929 18 168 0.0 3.2 0.00 0.00 0.00 68 1012.4
20260504042827 18 168 0.0 3.2 0.00 0.00 0.00 68 1012.4
20260504042727 18 168 0.0 4.8 0.00 0.00 0.00 68 1012.4
20260504042629 18 171 0.0 4.8 0.00 0.00 0.00 68 1012.5
20260504042527 18 171 0.0 4.8 0.00 0.00 0.00 68 1012.5
20260504042428 18 171 0.0 4.8 0.00 0.00 0.00 68 1012.5
20260504042327 18 171 0.0 4.8 0.00 0.00 0.00 68 1012.6
20260504042227 18 171 0.0 4.8 0.00 0.00 0.00 68 1012.6
20260504042128 18 171 1.6 4.8 0.00 0.00 0.00 68 1012.6
20260504042027 18 171 1.6 4.8 0.00 0.00 0.00 68 1012.6
20260504041927 18 171 3.2 4.8 0.00 0.00 0.00 67 1012.6
20260504041828 18 171 3.2 4.8 0.00 0.00 0.00 67 1012.6
20260504041727 18 173 1.6 4.8 0.00 0.00 0.00 67 1012.6
20260504041627 19 147 1.6 4.8 0.00 0.00 0.00 67 1012.6
20260504041530 18 147 0.0 4.8 0.00 0.00 0.00 67 1012.7
20260504041428 19 147 1.6 4.8 0.00 0.00 0.00 67 1012.6
20260504041328 19 147 1.6 4.8 0.00 0.00 0.00 67 1012.7
20260504041228 19 149 1.6 4.8 0.00 0.00 0.00 67 1012.6
20260504041127 19 144 1.6 4.8 0.00 0.00 0.00 66 1012.7
20260504041027 19 144 1.6 4.8 0.00 0.00 0.00 67 1012.7
20260504040927 19 144 0.0 4.8 0.00 0.00 0.00 67 1012.7
20260504040827 19 144 0.0 4.8 0.00 0.00 0.00 66 1012.7
20260504040727 19 145 1.6 6.4 0.00 0.00 0.00 66 1012.7
20260504040628 19 145 1.6 8.0 0.00 0.00 0.00 66 1012.7
20260504040524 19 141 3.2 8.0 0.00 0.00 0.00 66 1012.7
20260504040417 19 171 3.2 8.0 0.00 0.00 0.00 66 1012.7
20260504040309 19 172 1.6 8.0 0.00 0.00 0.00 66 1012.7
20260504040210 19 171 0.0 8.0 0.00 0.00 0.00 66 1012.6
20260504040104 19 158 0.0 8.0 0.00 0.00 0.00 65 1012.7
20260504040003 19 158 3.2 8.0 0.00 0.00 0.00 65 1012.5
20260504035902 19 158 3.2 8.0 0.00 0.00 0.00 65 1012.6
20260504035802 19 152 3.2 8.0 0.00 0.00 0.00 65 1012.5
20260504035704 19 190 3.2 6.4 0.00 0.00 0.00 65 1012.5
20260504035604 19 162 1.6 6.4 0.00 0.00 0.00 65 1012.5
20260504035502 19 164 3.2 6.4 0.00 0.00 0.00 65 1012.5
20260504035403 19 161 3.2 6.4 0.00 0.00 0.00 65 1012.6
20260504035304 19 161 3.2 6.4 0.00 0.00 0.00 65 1012.5
20260504035203 19 165 3.2 6.4 0.00 0.00 0.00 65 1012.5
20260504035103 19 168 3.2 6.4 0.00 0.00 0.00 65 1012.5
20260504035002 19 159 3.2 6.4 0.00 0.00 0.00 65 1012.5
20260504034902 19 157 3.2 6.4 0.00 0.00 0.00 65 1012.5
20260504034803 19 157 1.6 6.4 0.00 0.00 0.00 65 1012.5
20260504034703 19 157 3.2 6.4 0.00 0.00 0.00 65 1012.5
20260504034603 19 158 3.2 6.4 0.00 0.00 0.00 65 1012.5
20260504034502 19 165 3.2 6.4 0.00 0.00 0.00 65 1012.5
20260504034405 19 171 3.2 6.4 0.00 0.00 0.00 64 1012.5
20260504034304 19 148 3.2 6.4 0.00 0.00 0.00 64 1012.5
20260504034202 20 158 3.2 6.4 0.00 0.00 0.00 64 1012.5
20260504034104 20 121 0.0 4.8 0.00 0.00 0.00 65 1012.4
20260504034003 20 155 0.0 3.2 0.00 0.00 0.00 64 1012.5
20260504033904 20 155 0.0 4.8 0.00 0.00 0.00 64 1012.5
20260504033804 20 155 0.0 4.8 0.00 0.00 0.00 64 1012.5
20260504033703 20 155 0.0 4.8 0.00 0.00 0.00 64 1012.5
20260504033602 20 157 0.0 4.8 0.00 0.00 0.00 64 1012.6
20260504033504 20 158 0.0 4.8 0.00 0.00 0.00 64 1012.6
20260504033403 20 158 0.0 4.8 0.00 0.00 0.00 64 1012.6
20260504033303 20 157 0.0 4.8 0.00 0.00 0.00 63 1012.5
20260504033203 20 157 1.6 4.8 0.00 0.00 0.00 63 1012.5
20260504033104 20 157 3.2 4.8 0.00 0.00 0.00 63 1012.6
20260504033004 20 158 1.6 9.7 0.00 0.00 0.00 63 1012.5
20260504032903 20 161 3.2 9.7 0.00 0.00 0.00 63 1012.6
20260504032803 20 161 3.2 9.7 0.00 0.00 0.00 63 1012.5
20260504032703 20 151 3.2 9.7 0.00 0.00 0.00 63 1012.5
20260504032603 20 152 3.2 9.7 0.00 0.00 0.00 63 1012.5
20260504032503 20 152 3.2 9.7 0.00 0.00 0.00 62 1012.5
20260504032404 20 144 3.2 9.7 0.00 0.00 0.00 62 1012.5
20260504032303 20 159 3.2 9.7 0.00 0.00 0.00 62 1012.5
20260504032201 20 188 4.8 9.7 0.00 0.00 0.00 62 1012.5
20260504032102 20 169 3.2 9.7 0.00 0.00 0.00 62 1012.6
20260504032004 20 145 3.2 8.0 0.00 0.00 0.00 62 1012.5
20260504031902 20 147 3.2 8.0 0.00 0.00 0.00 62 1012.5
20260504031802 20 185 3.2 8.0 0.00 0.00 0.00 62 1012.5
20260504031704 20 186 3.2 9.7 0.00 0.00 0.00 62 1012.5
20260504031603 20 164 3.2 9.7 0.00 0.00 0.00 62 1012.5
20260504031504 20 118 3.2 11.3 0.00 0.00 0.00 62 1012.5
20260504031403 20 134 3.2 11.3 0.00 0.00 0.00 62 1012.4
20260504031304 20 151 4.8 11.3 0.00 0.00 0.00 62 1012.4
20260504031204 20 164 4.8 11.3 0.00 0.00 0.00 62 1012.4
20260504031103 20 138 4.8 11.3 0.00 0.00 0.00 62 1012.4
20260504031002 20 151 4.8 11.3 0.00 0.00 0.00 61 1012.4
20260504030902 20 155 4.8 11.3 0.00 0.00 0.00 61 1012.4
20260504030802 20 128 4.8 11.3 0.00 0.00 0.00 61 1012.4
20260504030703 20 147 4.8 11.3 0.00 0.00 0.00 61 1012.4
20260504030604 20 124 4.8 11.3 0.00 0.00 0.00 61 1012.4
20260504030504 20 175 3.2 9.7 0.00 0.00 0.00 61 1012.3
20260504030402 20 142 3.2 9.7 0.00 0.00 0.00 61 1012.4
20260504030303 20 134 4.8 9.7 0.00 0.00 0.00 61 1012.4
20260504030204 20 155 6.4 9.7 0.00 0.00 0.00 61 1012.4
20260504030101 20 158 4.8 9.7 0.00 0.00 0.00 61 1012.3
20260504030004 20 121 4.8 9.7 0.00 0.00 0.00 61 1012.4
20260504025904 20 171 4.8 9.7 0.00 0.00 0.00 61 1012.3
20260504025802 20 173 4.8 9.7 0.00 0.00 0.00 61 1012.3
20260504025704 20 149 3.2 8.0 0.00 0.00 0.00 61 1012.2
20260504025603 20 180 4.8 11.3 0.00 0.00 0.00 61 1012.3
20260504025502 20 124 4.8 11.3 0.00 0.00 0.00 61 1012.2
20260504025403 20 149 3.2 11.3 0.00 0.00 0.00 61 1012.3
20260504025304 20 151 3.2 11.3 0.00 0.00 0.00 61 1012.2
20260504025203 20 145 4.8 11.3 0.00 0.00 0.00 60 1012.2
20260504025102 20 144 4.8 11.3 0.00 0.00 0.00 60 1012.2
20260504025002 20 128 4.8 11.3 0.00 0.00 0.00 60 1012.3
20260504024904 20 151 3.2 11.3 0.00 0.00 0.00 60 1012.3
20260504024802 20 137 6.4 11.3 0.00 0.00 0.00 60 1012.2
20260504024703 20 176 6.4 11.3 0.00 0.00 0.00 60 1012.2
20260504024602 20 155 4.8 11.3 0.00 0.00 0.00 60 1012.2
20260504024503 20 131 4.8 9.7 0.00 0.00 0.00 60 1012.2
20260504024402 21 135 4.8 9.7 0.00 0.00 0.00 60 1012.1
20260504024304 21 140 6.4 9.7 0.00 0.00 0.00 60 1012.2
20260504024203 21 144 6.4 9.7 0.00 0.00 0.00 59 1012.2
20260504024102 21 147 6.4 9.7 0.00 0.00 0.00 60 1012.3
20260504024004 21 169 4.8 8.0 0.00 0.00 0.00 59 1012.2
20260504023903 21 148 4.8 8.0 0.00 0.00 0.00 59 1012.2
20260504023804 21 145 6.4 8.0 0.00 0.00 0.00 60 1012.2
20260504023702 21 134 4.8 8.0 0.00 0.00 0.00 60 1012.2
20260504023604 21 145 4.8 8.0 0.00 0.00 0.00 60 1012.2
20260504023503 21 147 4.8 8.0 0.00 0.00 0.00 59 1012.1
20260504023402 21 147 4.8 8.0 0.00 0.00 0.00 59 1012.2
20260504023303 21 162 4.8 8.0 0.00 0.00 0.00 59 1012.2
20260504023203 21 145 3.2 8.0 0.00 0.00 0.00 59 1012.1
20260504023103 21 147 4.8 8.0 0.00 0.00 0.00 59 1012.2
20260504023003 21 144 3.2 8.0 0.00 0.00 0.00 59 1012.2
20260504022904 21 145 3.2 8.0 0.00 0.00 0.00 59 1012.1
20260504022803 21 140 4.8 8.0 0.00 0.00 0.00 59 1012.0
20260504022703 21 147 4.8 8.0 0.00 0.00 0.00 59 1012.1
20260504022604 21 161 3.2 8.0 0.00 0.00 0.00 58 1012.1
20260504022503 21 145 3.2 8.0 0.00 0.00 0.00 58 1012.0
20260504022402 21 154 3.2 8.0 0.00 0.00 0.00 58 1012.0
20260504022304 21 149 4.8 8.0 0.00 0.00 0.00 58 1012.0
20260504022202 21 144 4.8 8.0 0.00 0.00 0.00 58 1011.9
20260504022104 21 121 4.8 8.0 0.00 0.00 0.00 58 1012.0
20260504022003 21 161 3.2 8.0 0.00 0.00 0.00 58 1012.1
20260504021903 21 140 3.2 8.0 0.00 0.00 0.00 58 1012.0
20260504021802 21 162 3.2 9.7 0.00 0.00 0.00 57 1012.1
20260504021703 21 164 3.2 9.7 0.00 0.00 0.00 57 1012.0
20260504021602 21 164 3.2 9.7 0.00 0.00 0.00 57 1012.0
20260504021504 21 165 3.2 9.7 0.00 0.00 0.00 57 1012.1
20260504021402 21 166 3.2 9.7 0.00 0.00 0.00 57 1012.0
20260504021303 21 161 3.2 9.7 0.00 0.00 0.00 57 1012.0
20260504021203 21 171 4.8 9.7 0.00 0.00 0.00 57 1011.9
20260504021103 21 172 4.8 9.7 0.00 0.00 0.00 57 1012.0
20260504021003 21 148 4.8 9.7 0.00 0.00 0.00 56 1012.0
20260504020904 21 151 3.2 9.7 0.00 0.00 0.00 57 1012.0
20260504020804 21 151 3.2 9.7 0.00 0.00 0.00 57 1011.9
20260504020702 21 137 3.2 9.7 0.00 0.00 0.00 57 1011.9
20260504020604 21 151 6.4 11.3 0.00 0.00 0.00 56 1012.0
20260504020503 21 145 6.4 16.1 0.00 0.00 0.00 56 1012.0
20260504020402 21 152 4.8 16.1 0.00 0.00 0.00 56 1011.9
20260504020302 21 173 4.8 16.1 0.00 0.00 0.00 56 1011.9
20260504020203 21 237 4.8 16.1 0.00 0.00 0.00 56 1011.9
20260504020103 21 172 4.8 16.1 0.00 0.00 0.00 56 1011.9
20260504020004 21 138 6.4 16.1 0.00 0.00 0.00 56 1012.0
20260504015903 21 107 6.4 16.1 0.00 0.00 0.00 56 1011.8
20260504015804 21 151 8.0 16.1 0.00 0.00 0.00 56 1011.8
20260504015702 21 152 8.0 16.1 0.00 0.00 0.00 56 1011.8
20260504015603 21 117 9.7 16.1 0.00 0.00 0.00 56 1011.8
20260504015505 21 127 8.0 14.5 0.00 0.00 0.00 56 1011.8
20260504015403 21 114 8.0 16.1 0.00 0.00 0.00 56 1011.7
20260504015304 21 125 6.4 16.1 0.00 0.00 0.00 56 1011.8
20260504015204 21 149 4.8 16.1 0.00 0.00 0.00 56 1011.8
20260504015102 22 133 6.4 16.1 0.00 0.00 0.00 55 1011.8
20260504015004 22 145 6.4 16.1 0.00 0.00 0.00 55 1011.7
20260504014904 22 166 8.0 16.1 0.00 0.00 0.00 55 1011.8
20260504014801 22 144 8.0 16.1 0.00 0.00 0.00 55 1011.8
20260504014705 22 109 6.4 16.1 0.00 0.00 0.00 55 1011.8
20260504014602 22 148 8.0 16.1 0.00 0.00 0.00 54 1011.8
20260504014503 22 161 8.0 16.1 0.00 0.00 0.00 54 1011.8
20260504014403 22 128 4.8 14.5 0.00 0.00 0.00 54 1011.8
20260504014304 22 149 6.4 14.5 0.00 0.00 0.00 54 1011.8
20260504014202 22 137 8.0 17.7 0.00 0.00 0.00 55 1011.8
20260504014104 22 168 6.4 17.7 0.00 0.00 0.00 55 1011.7
20260504014005 22 152 6.4 17.7 0.00 0.00 0.00 55 1011.8
20260504013902 22 161 4.8 17.7 0.00 0.00 0.00 54 1011.8
20260504013804 22 162 4.8 17.7 0.00 0.00 0.00 54 1011.8
20260504013702 22 134 4.8 17.7 0.00 0.00 0.00 54 1011.9
20260504013604 22 159 8.0 17.7 0.00 0.00 0.00 54 1011.8
20260504013504 22 173 8.0 17.7 0.00 0.00 0.00 54 1011.8
20260504013401 22 178 8.0 17.7 0.00 0.00 0.00 55 1011.8
20260504013304 22 148 4.8 17.7 0.00 0.00 0.00 55 1011.7
20260504013202 22 147 3.2 8.0 0.00 0.00 0.00 55 1011.8
20260504013103 22 147 4.8 8.0 0.00 0.00 0.00 55 1011.7
20260504013003 22 147 4.8 8.0 0.00 0.00 0.00 55 1011.8
20260504012902 22 138 3.2 8.0 0.00 0.00 0.00 54 1011.8
20260504012803 22 135 3.2 8.0 0.00 0.00 0.00 54 1011.7
20260504012702 22 155 4.8 8.0 0.00 0.00 0.00 54 1011.7
20260504012602 22 133 4.8 8.0 0.00 0.00 0.00 54 1011.6
20260504012502 22 130 6.4 8.0 0.00 0.00 0.00 54 1011.7
20260504012403 22 158 6.4 14.5 0.00 0.00 0.00 54 1011.6
20260504012304 22 172 6.4 14.5 0.00 0.00 0.00 55 1011.6
20260504012203 22 141 6.4 14.5 0.00 0.00 0.00 55 1011.6
20260504012103 22 155 4.8 14.5 0.00 0.00 0.00 54 1011.6
20260504012005 22 147 3.2 14.5 0.00 0.00 0.00 54 1011.6
20260504011903 22 152 3.2 14.5 0.00 0.00 0.00 54 1011.6
20260504011803 22 114 3.2 14.5 0.00 0.00 0.00 54 1011.7
20260504011702 22 168 4.8 14.5 0.00 0.00 0.00 54 1011.5
20260504011603 22 158 6.4 14.5 0.00 0.00 0.00 54 1011.6
20260504011505 22 110 6.4 14.5 0.00 0.00 0.00 54 1011.7
20260504011403 22 124 6.4 16.1 0.00 0.00 0.00 53 1011.7
20260504011302 22 165 6.4 16.1 0.00 0.00 0.00 53 1011.6
20260504011202 22 151 4.8 16.1 0.00 0.00 0.00 54 1011.6
20260504011103 22 142 6.4 16.1 0.00 0.00 0.00 53 1011.6
20260504011004 22 137 6.4 16.1 0.00 0.00 0.00 53 1011.5
20260504010903 22 134 8.0 16.1 0.00 0.00 0.00 53 1011.6
20260504010802 22 127 8.0 16.1 0.00 0.00 0.00 53 1011.5
20260504010705 22 113 8.0 16.1 0.00 0.00 0.00 53 1011.5
20260504010604 22 154 8.0 16.1 0.00 0.00 0.00 53 1011.6
20260504010505 22 148 9.7 16.1 0.00 0.00 0.00 53 1011.6
20260504010403 22 125 9.7 16.1 0.00 0.00 0.00 53 1011.6
20260504010304 23 131 9.7 16.1 0.00 0.00 0.00 53 1011.6
20260504010202 23 171 9.7 16.1 0.00 0.00 0.00 53 1011.6
20260504010003 23 142 8.0 16.1 0.00 0.00 0.00 52 1011.6
20260504005902 23 144 8.0 16.1 0.00 0.00 0.00 52 1011.6
20260504005804 23 130 8.0 16.1 0.00 0.00 0.00 52 1011.6
20260504005703 23 137 9.7 16.1 0.00 0.00 0.00 52 1011.5
20260504005603 23 137 8.0 16.1 0.00 0.00 0.00 52 1011.6
20260504005502 23 171 6.4 16.1 0.00 0.00 0.00 53 1011.5
20260504005403 23 123 8.0 16.1 0.00 0.00 0.00 52 1011.5
20260504005304 23 125 6.4 16.1 0.00 0.00 0.00 53 1011.5
20260504005203 23 117 4.8 9.7 0.00 0.00 0.00 53 1011.5
20260504005102 23 118 4.8 9.7 0.00 0.00 0.00 52 1011.6
20260504005005 23 161 6.4 9.7 0.00 0.00 0.00 51 1011.5
20260504004900 23 158 6.4 9.7 0.00 0.00 0.00 51 1011.5
20260504004754 23 179 4.8 16.1 0.00 0.00 0.00 52 1011.5
20260504004654 23 173 4.8 16.1 0.00 0.00 0.00 52 1011.5
20260504004552 23 133 3.2 16.1 0.00 0.00 0.00 52 1011.5
20260504004447 23 144 3.2 16.1 0.00 0.00 0.00 52 1011.5
20260504004343 23 158 4.8 16.1 0.00 0.00 0.00 51 1011.5
20260504004242 23 151 4.8 16.1 0.00 0.00 0.00 51 1011.5
20260504004133 23 110 3.2 16.1 0.00 0.00 0.00 51 1011.5
20260504004031 23 159 3.2 16.1 0.00 0.00 0.00 51 1011.5
20260504003933 23 113 6.4 16.1 0.00 0.00 0.00 50 1011.5
20260504003833 23 178 8.0 16.1 0.00 0.00 0.00 50 1011.5
20260504003732 23 172 4.8 11.3 0.00 0.00 0.00 50 1011.6
20260504003632 23 173 4.8 9.7 0.00 0.00 0.00 50 1011.7
20260504003532 24 188 6.4 9.7 0.00 0.00 0.00 50 1011.7
20260504003431 24 140 6.4 9.7 0.00 0.00 0.00 50 1011.7
20260504003332 24 171 4.8 9.7 0.00 0.00 0.00 50 1011.8
20260504003232 24 149 3.2 9.7 0.00 0.00 0.00 50 1011.7
20260504003131 24 162 6.4 9.7 0.00 0.00 0.00 50 1011.7
20260504003032 24 159 6.4 11.3 0.00 0.00 0.00 50 1011.7
20260504002930 24 120 6.4 11.3 0.00 0.00 0.00 50 1011.7
20260504002831 23 149 6.4 11.3 0.00 0.00 0.00 50 1011.7
20260504002732 24 185 6.4 11.3 0.00 0.00 0.00 50 1011.7
20260504002633 24 168 6.4 11.3 0.00 0.00 0.00 50 1011.7
20260504002532 24 172 6.4 11.3 0.00 0.00 0.00 50 1011.7
20260504002430 24 154 4.8 11.3 0.00 0.00 0.00 50 1011.7
20260504002332 24 148 4.8 11.3 0.00 0.00 0.00 49 1011.6
20260504002232 24 148 6.4 11.3 0.00 0.00 0.00 49 1011.6
20260504002132 24 131 6.4 11.3 0.00 0.00 0.00 49 1011.6
20260504002031 24 168 6.4 11.3 0.00 0.00 0.00 48 1011.6
20260504001933 24 172 4.8 9.7 0.00 0.00 0.00 48 1011.6
20260504001831 24 179 4.8 9.7 0.00 0.00 0.00 47 1011.6
20260504001731 24 157 6.4 9.7 0.00 0.00 0.00 46 1011.5
20260504001631 24 130 4.8 8.0 0.00 0.00 0.00 46 1011.5
20260504001531 24 159 1.6 8.0 0.00 0.00 0.00 45 1011.5
20260504001432 24 154 1.6 8.0 0.00 0.00 0.00 46 1011.5
20260504001331 25 157 0.0 8.0 0.00 0.00 0.00 46 1011.5
20260504001231 25 157 0.0 8.0 0.00 0.00 0.00 45 1011.5
20260504001132 25 157 0.0 8.0 0.00 0.00 0.00 45 1011.4
20260504001031 25 157 1.6 8.0 0.00 0.00 0.00 44 1011.5
20260504000931 25 157 4.8 8.0 0.00 0.00 0.00 44 1011.6
20260504000833 25 142 6.4 8.0 0.00 0.00 0.00 45 1011.5
20260504000731 25 131 6.4 8.0 0.00 0.00 0.00 45 1011.6
20260504000632 25 166 3.2 6.4 0.00 0.00 0.00 44 1011.5
20260504000532 25 173 1.6 6.4 0.00 0.00 0.00 44 1011.6
20260504000433 25 171 1.6 8.0 0.00 0.00 0.00 44 1011.6
20260504000332 25 172 3.2 8.0 0.00 0.00 0.00 45 1011.7
20260504000226 25 183 3.2 8.0 0.00 0.00 0.00 45 1011.6
20260504000123 25 196 3.2 8.0 0.00 0.00 0.00 44 1011.6
20260504000024 25 158 3.2 8.0 0.00 0.00 0.00 44 1011.5
20260503235921 25 157 3.2 8.0 0.00 0.00 0.00 43 1011.5
20260503235824 25 171 3.2 8.0 0.00 0.00 0.00 43 1011.5
20260503235721 25 175 3.2 8.0 0.00 0.00 0.00 43 1011.5
20260503235624 25 168 4.8 8.0 0.00 0.00 0.00 42 1011.5
20260503235522 25 178 4.8 8.0 0.00 0.00 0.00 43 1011.5
20260503235423 25 165 3.2 8.0 0.00 0.00 0.00 43 1011.5
20260503235322 25 159 3.2 8.0 0.00 0.00 0.00 43 1011.5
20260503235221 25 158 1.6 9.7 0.00 0.00 0.00 43 1011.7
20260503235122 25 169 1.6 9.7 0.00 0.00 0.00 43 1011.7
20260503235023 25 171 4.8 9.7 0.00 0.00 0.00 43 1011.6
20260503234922 25 173 6.4 9.7 0.00 0.00 0.00 43 1011.6
20260503234822 25 151 4.8 9.7 0.00 0.00 0.00 43 1011.7
20260503234722 25 138 6.4 9.7 0.00 0.00 0.00 43 1011.6
20260503234621 25 155 6.4 9.7 0.00 0.00 0.00 43 1011.6
20260503234521 25 149 4.8 9.7 0.00 0.00 0.00 42 1011.6
20260503234423 25 138 4.8 9.7 0.00 0.00 0.00 42 1011.7
20260503234322 25 137 4.8 9.7 0.00 0.00 0.00 42 1011.7
20260503234220 25 145 3.2 9.7 0.00 0.00 0.00 42 1011.7
20260503234122 25 199 4.8 9.7 0.00 0.00 0.00 42 1011.7
20260503234022 25 182 6.4 9.7 0.00 0.00 0.00 41 1011.8
20260503233920 25 161 6.4 9.7 0.00 0.00 0.00 41 1011.7
20260503233821 25 189 6.4 9.7 0.00 0.00 0.00 41 1011.6
20260503233722 25 157 4.8 9.7 0.00 0.00 0.00 40 1011.6
20260503233622 25 204 6.4 9.7 0.00 0.00 0.00 41 1011.5
20260503233521 25 141 4.8 9.7 0.00 0.00 0.00 41 1011.5
20260503233422 25 123 3.2 9.7 0.00 0.00 0.00 41 1011.5
20260503233321 25 158 3.2 9.7 0.00 0.00 0.00 40 1011.6
20260503233220 25 168 4.8 9.7 0.00 0.00 0.00 40 1011.6
20260503233123 25 125 4.8 9.7 0.00 0.00 0.00 41 1011.6
20260503233022 25 138 3.2 8.0 0.00 0.00 0.00 41 1011.6
20260503232923 25 171 3.2 9.7 0.00 0.00 0.00 41 1011.6
20260503232821 25 171 4.8 9.7 0.00 0.00 0.00 41 1011.7
20260503232723 25 182 4.8 9.7 0.00 0.00 0.00 41 1011.7
20260503232622 25 179 3.2 9.7 0.00 0.00 0.00 40 1011.7
20260503232522 25 173 3.2 9.7 0.00 0.00 0.00 40 1011.7
20260503232421 25 175 4.8 9.7 0.00 0.00 0.00 40 1011.7
20260503232321 25 169 4.8 11.3 0.00 0.00 0.00 41 1011.8
20260503232220 25 152 3.2 11.3 0.00 0.00 0.00 40 1011.8
20260503232121 25 173 4.8 11.3 0.00 0.00 0.00 39 1011.8
20260503232021 26 200 6.4 11.3 0.00 0.00 0.00 39 1011.7
20260503231920 26 188 4.8 11.3 0.00 0.00 0.00 39 1011.7
20260503231822 26 168 4.8 11.3 0.00 0.00 0.00 39 1011.8
20260503231722 26 145 4.8 11.3 0.00 0.00 0.00 39 1011.7
20260503231622 26 165 6.4 11.3 0.00 0.00 0.00 40 1011.9
20260503231520 26 171 6.4 11.3 0.00 0.00 0.00 40 1011.9
20260503231421 26 190 6.4 11.3 0.00 0.00 0.00 40 1012.0
20260503231321 26 133 4.8 11.3 0.00 0.00 0.00 40 1011.9
20260503231220 26 114 3.2 11.3 0.00 0.00 0.00 39 1011.9
20260503231122 26 142 1.6 11.3 0.00 0.00 0.00 39 1011.9
20260503231020 26 169 1.6 11.3 0.00 0.00 0.00 40 1011.9
20260503230923 26 171 3.2 11.3 0.00 0.00 0.00 40 1011.9
20260503230823 26 175 4.8 11.3 0.00 0.00 0.00 39 1011.9
20260503230720 26 189 6.4 11.3 0.00 0.00 0.00 39 1011.9
20260503230620 26 173 4.8 11.3 0.00 0.00 0.00 43 1011.9
20260503230523 26 124 4.8 11.3 0.00 0.00 0.00 43 1011.9
20260503230422 26 106 3.2 11.3 0.00 0.00 0.00 40 1011.9
20260503230320 26 188 3.2 11.3 0.00 0.00 0.00 40 1011.9
20260503230222 26 189 4.8 11.3 0.00 0.00 0.00 40 1011.8
20260503230120 26 185 6.4 11.3 0.00 0.00 0.00 40 1011.9
20260503230020 26 190 6.4 11.3 0.00 0.00 0.00 40 1011.9
20260503225921 26 133 4.8 11.3 0.00 0.00 0.00 40 1011.9
20260503225821 26 171 4.8 14.5 0.00 0.00 0.00 41 1011.9
20260503225720 26 149 4.8 14.5 0.00 0.00 0.00 40 1011.8
20260503225623 26 168 4.8 14.5 0.00 0.00 0.00 40 1011.8
20260503225520 26 210 4.8 14.5 0.00 0.00 0.00 41 1011.8
20260503225419 26 175 4.8 14.5 0.00 0.00 0.00 40 1011.8
20260503225319 26 197 3.2 14.5 0.00 0.00 0.00 39 1011.8
20260503225222 26 195 3.2 14.5 0.00 0.00 0.00 39 1011.8
20260503225120 26 175 4.8 14.5 0.00 0.00 0.00 39 1011.8
20260503225020 26 125 8.0 14.5 0.00 0.00 0.00 40 1011.9
20260503224921 26 102 6.4 14.5 0.00 0.00 0.00 40 1011.8
20260503224820 26 109 6.4 11.3 0.00 0.00 0.00 39 1011.9
20260503224719 26 133 8.0 11.3 0.00 0.00 0.00 40 1012.0
20260503224620 26 188 6.4 11.3 0.00 0.00 0.00 40 1011.9
20260503224521 26 144 4.8 11.3 0.00 0.00 0.00 40 1012.0
20260503224421 26 199 3.2 11.3 0.00 0.00 0.00 40 1012.0
20260503224319 26 169 4.8 11.3 0.00 0.00 0.00 40 1012.1
20260503224219 26 157 4.8 11.3 0.00 0.00 0.00 39 1012.1
20260503224119 26 164 6.4 11.3 0.00 0.00 0.00 39 1012.1
20260503224021 26 154 6.4 11.3 0.00 0.00 0.00 40 1012.2
20260503223921 26 148 4.8 11.3 0.00 0.00 0.00 40 1012.2
20260503223820 26 157 4.8 11.3 0.00 0.00 0.00 40 1012.1
20260503223720 26 142 4.8 11.3 0.00 0.00 0.00 40 1012.1
20260503223619 26 130 3.2 9.7 0.00 0.00 0.00 40 1012.2
20260503223520 26 144 3.2 9.7 0.00 0.00 0.00 40 1012.2
20260503223419 26 142 3.2 9.7 0.00 0.00 0.00 40 1012.2
20260503223321 26 140 4.8 9.7 0.00 0.00 0.00 41 1012.2
20260503223220 26 159 4.8 9.7 0.00 0.00 0.00 41 1012.3
20260503223120 26 182 4.8 9.7 0.00 0.00 0.00 41 1012.2
20260503223020 26 173 3.2 6.4 0.00 0.00 0.00 40 1012.2
20260503222919 26 175 3.2 6.4 0.00 0.00 0.00 40 1012.2
20260503222821 26 210 3.2 9.7 0.00 0.00 0.00 39 1012.2
20260503222719 26 210 3.2 9.7 0.00 0.00 0.00 41 1012.2
20260503222621 26 159 3.2 9.7 0.00 0.00 0.00 41 1012.2
20260503222519 26 117 1.6 9.7 0.00 0.00 0.00 42 1012.1
20260503222421 26 111 1.6 16.1 0.00 0.00 0.00 40 1012.2
20260503222320 26 125 3.2 16.1 0.00 0.00 0.00 41 1012.1
20260503222220 26 125 3.2 16.1 0.00 0.00 0.00 41 1012.2
20260503222119 26 121 3.2 17.7 0.00 0.00 0.00 40 1012.1
20260503222019 26 168 4.8 17.7 0.00 0.00 0.00 38 1012.2
20260503221920 26 162 4.8 17.7 0.00 0.00 0.00 39 1012.2
20260503221820 26 147 4.8 17.7 0.00 0.00 0.00 38 1012.3
20260503221720 26 154 4.8 17.7 0.00 0.00 0.00 40 1012.2
20260503221621 26 147 8.0 17.7 0.00 0.00 0.00 37 1012.3
20260503221520 26 104 9.7 17.7 0.00 0.00 0.00 39 1012.3
20260503221420 26 103 9.7 17.7 0.00 0.00 0.00 38 1012.4
20260503221320 26 124 11.3 17.7 0.00 0.00 0.00 39 1012.4
20260503221219 26 148 9.7 17.7 0.00 0.00 0.00 39 1012.4
20260503221120 26 123 6.4 11.3 0.00 0.00 0.00 39 1012.5
20260503221020 26 111 4.8 11.3 0.00 0.00 0.00 39 1012.5
20260503220921 26 145 4.8 11.3 0.00 0.00 0.00 38 1012.6
20260503220820 27 183 3.2 11.3 0.00 0.00 0.00 38 1012.5
20260503220720 27 149 3.2 11.3 0.00 0.00 0.00 37 1012.5
20260503220621 27 149 4.8 11.3 0.00 0.00 0.00 38 1012.5
20260503220519 27 140 6.4 11.3 0.00 0.00 0.00 38 1012.6
20260503220418 27 151 6.4 11.3 0.00 0.00 0.00 38 1012.6
20260503220319 27 141 3.2 8.0 0.00 0.00 0.00 39 1012.6
20260503220220 27 133 3.2 8.0 0.00 0.00 0.00 38 1012.6
20260503220119 27 133 0.0 8.0 0.00 0.00 0.00 37 1012.6
20260503220021 27 133 0.0 9.7 0.00 0.00 0.00 37 1012.6
20260503215919 27 133 1.6 9.7 0.00 0.00 0.00 38 1012.6
20260503215819 26 133 1.6 9.7 0.00 0.00 0.00 38 1012.6
20260503215720 26 133 4.8 9.7 0.00 0.00 0.00 39 1012.6
20260503215619 26 114 4.8 9.7 0.00 0.00 0.00 39 1012.5
20260503215520 26 118 4.8 11.3 0.00 0.00 0.00 39 1012.5
20260503215419 26 107 4.8 11.3 0.00 0.00 0.00 39 1012.5
20260503215318 26 125 4.8 11.3 0.00 0.00 0.00 39 1012.5
20260503215219 26 121 6.4 11.3 0.00 0.00 0.00 39 1012.5
20260503215120 26 124 4.8 11.3 0.00 0.00 0.00 39 1012.5
20260503215020 26 162 6.4 11.3 0.00 0.00 0.00 39 1012.5
20260503214918 26 159 6.4 16.1 0.00 0.00 0.00 40 1012.5
20260503214819 26 110 6.4 16.1 0.00 0.00 0.00 40 1012.5
20260503214718 26 106 8.0 16.1 0.00 0.00 0.00 40 1012.5
20260503214619 26 83 8.0 16.1 0.00 0.00 0.00 40 1012.5
20260503214519 26 113 6.4 16.1 0.00 0.00 0.00 40 1012.6
20260503214419 26 128 6.4 16.1 0.00 0.00 0.00 39 1012.6
20260503214319 26 145 6.4 16.1 0.00 0.00 0.00 39 1012.5
20260503214218 26 113 6.4 16.1 0.00 0.00 0.00 39 1012.5
20260503214119 26 76 8.0 16.1 0.00 0.00 0.00 39 1012.5
20260503214018 26 103 9.7 16.1 0.00 0.00 0.00 39 1012.5
20260503213920 26 97 8.0 11.3 0.00 0.00 0.00 40 1012.5
20260503213819 26 137 9.7 11.3 0.00 0.00 0.00 42 1012.4
20260503213720 26 128 6.4 11.3 0.00 0.00 0.00 43 1012.5
20260503213618 26 113 3.2 11.3 0.00 0.00 0.00 39 1012.5
20260503213520 26 137 1.6 11.3 0.00 0.00 0.00 39 1012.5
20260503213418 26 137 1.6 11.3 0.00 0.00 0.00 39 1012.5
20260503213318 26 137 3.2 11.3 0.00 0.00 0.00 38 1012.6
20260503213220 26 127 4.8 11.3 0.00 0.00 0.00 39 1012.6
20260503213119 26 195 3.2 14.5 0.00 0.00 0.00 39 1012.7
20260503213018 26 106 3.2 14.5 0.00 0.00 0.00 39 1012.7
20260503212918 26 106 6.4 14.5 0.00 0.00 0.00 39 1012.7
20260503212819 26 107 8.0 14.5 0.00 0.00 0.00 38 1012.9
20260503212719 26 117 8.0 14.5 0.00 0.00 0.00 40 1012.8
20260503212618 26 106 6.4 14.5 0.00 0.00 0.00 40 1012.9
20260503212519 26 109 6.4 14.5 0.00 0.00 0.00 41 1013.0
20260503212418 26 107 4.8 14.5 0.00 0.00 0.00 40 1013.1
20260503212318 26 78 8.0 14.5 0.00 0.00 0.00 40 1013.1
20260503212219 26 92 6.4 16.1 0.00 0.00 0.00 41 1013.1
20260503212117 26 106 4.8 16.1 0.00 0.00 0.00 41 1013.1
20260503212019 26 55 6.4 16.1 0.00 0.00 0.00 41 1013.0
20260503211919 26 42 6.4 16.1 0.00 0.00 0.00 41 1013.2
20260503211819 26 71 4.8 16.1 0.00 0.00 0.00 43 1013.1
20260503211718 26 79 6.4 16.1 0.00 0.00 0.00 43 1013.1
20260503211617 26 83 8.0 16.1 0.00 0.00 0.00 40 1013.1
20260503211520 26 96 8.0 16.1 0.00 0.00 0.00 40 1013.1
20260503211419 26 110 11.3 16.1 0.00 0.00 0.00 40 1013.1
20260503211317 26 102 11.3 16.1 0.00 0.00 0.00 40 1013.0
20260503211218 26 118 9.7 11.3 0.00 0.00 0.00 40 1013.0
20260503211119 26 111 6.4 11.3 0.00 0.00 0.00 40 1013.1
20260503211018 26 120 4.8 11.3 0.00 0.00 0.00 42 1013.0
20260503210917 26 151 3.2 11.3 0.00 0.00 0.00 41 1013.1
20260503210819 26 157 3.2 11.3 0.00 0.00 0.00 41 1013.0
20260503210719 26 137 8.0 11.3 0.00 0.00 0.00 42 1013.1
20260503210619 26 123 9.7 11.3 0.00 0.00 0.00 44 1013.1
20260503210517 26 102 8.0 11.3 0.00 0.00 0.00 44 1013.2
20260503210418 26 145 6.4 11.3 0.00 0.00 0.00 44 1013.1
20260503210317 26 100 6.4 8.0 0.00 0.00 0.00 44 1013.2
20260503210219 25 76 4.8 9.7 0.00 0.00 0.00 42 1013.2
20260503210120 26 59 4.8 9.7 0.00 0.00 0.00 43 1013.2
20260503210018 26 61 4.8 9.7 0.00 0.00 0.00 43 1013.1
20260503205917 26 63 6.4 9.7 0.00 0.00 0.00 41 1013.2
20260503205818 26 51 6.4 9.7 0.00 0.00 0.00 42 1013.2
20260503205718 26 49 6.4 9.7 0.00 0.00 0.00 42 1013.3
20260503205617 26 63 4.8 9.7 0.00 0.00 0.00 41 1013.2
20260503205518 27 94 4.8 9.7 0.00 0.00 0.00 41 1013.2
20260503205419 26 111 6.4 9.7 0.00 0.00 0.00 42 1013.3
20260503205318 26 106 4.8 9.7 0.00 0.00 0.00 42 1013.2
20260503205218 26 151 6.4 8.0 0.00 0.00 0.00 40 1013.3
20260503205118 26 111 3.2 8.0 0.00 0.00 0.00 42 1013.3
20260503205017 26 131 1.6 6.4 0.00 0.00 0.00 38 1013.3
20260503204919 26 169 3.2 6.4 0.00 0.00 0.00 41 1013.4
20260503204817 26 169 3.2 6.4 0.00 0.00 0.00 41 1013.4
20260503204719 26 168 3.2 6.4 0.00 0.00 0.00 40 1013.4
20260503204618 26 169 4.8 6.4 0.00 0.00 0.00 38 1013.4
20260503204517 26 145 3.2 6.4 0.00 0.00 0.00 38 1013.4
20260503204418 26 213 3.2 6.4 0.00 0.00 0.00 40 1013.4
20260503204318 26 224 1.6 6.4 0.00 0.00 0.00 42 1013.4
20260503204218 26 226 1.6 6.4 0.00 0.00 0.00 42 1013.5
20260503204116 26 0 1.6 6.4 0.00 0.00 0.00 43 1013.5
20260503204018 26 0 0.0 11.3 0.00 0.00 0.00 39 1013.5
20260503203917 26 0 0.0 11.3 0.00 0.00 0.00 39 1013.5
20260503203820 26 0 1.6 11.3 0.00 0.00 0.00 38 1013.6
20260503203718 26 0 3.2 11.3 0.00 0.00 0.00 43 1013.6
20260503203619 26 0 3.2 14.5 0.00 0.00 0.00 43 1013.6
20260503203518 26 93 3.2 14.5 0.00 0.00 0.00 39 1013.5
20260503203418 26 93 3.2 14.5 0.00 0.00 0.00 44 1013.6
20260503203318 26 94 6.4 14.5 0.00 0.00 0.00 41 1013.7
20260503203218 26 80 6.4 14.5 0.00 0.00 0.00 41 1013.6
20260503203116 26 82 8.0 14.5 0.00 0.00 0.00 41 1013.7
20260503203018 26 94 6.4 14.5 0.00 0.00 0.00 38 1013.7
20260503202916 26 96 6.4 14.5 0.00 0.00 0.00 42 1013.7
20260503202817 26 127 9.7 14.5 0.00 0.00 0.00 42 1013.7
20260503202718 26 106 8.0 14.5 0.00 0.00 0.00 42 1013.7
20260503202617 26 104 6.4 14.5 0.00 0.00 0.00 42 1013.8
20260503202517 26 106 8.0 14.5 0.00 0.00 0.00 42 1013.8
20260503202418 26 93 8.0 14.5 0.00 0.00 0.00 40 1013.9
20260503202316 26 93 6.4 14.5 0.00 0.00 0.00 40 1013.8
20260503202216 26 86 6.4 14.5 0.00 0.00 0.00 40 1013.8
20260503202118 26 89 9.7 9.7 0.00 0.00 0.00 40 1013.8
20260503202017 26 82 8.0 9.7 0.00 0.00 0.00 40 1013.8
20260503201918 26 125 6.4 11.3 0.00 0.00 0.00 43 1013.8
20260503201817 26 241 4.8 11.3 0.00 0.00 0.00 41 1013.7
20260503201716 26 200 3.2 11.3 0.00 0.00 0.00 39 1013.8
20260503201619 26 164 4.8 16.1 0.00 0.00 0.00 43 1013.8
20260503201517 26 149 6.4 16.1 0.00 0.00 0.00 43 1013.9
20260503201417 26 144 4.8 16.1 0.00 0.00 0.00 43 1013.9
20260503201316 26 135 3.2 16.1 0.00 0.00 0.00 40 1013.9
20260503201217 26 172 3.2 16.1 0.00 0.00 0.00 39 1014.0
20260503201116 26 169 6.4 16.1 0.00 0.00 0.00 39 1014.0
20260503201017 26 151 9.7 16.1 0.00 0.00 0.00 43 1014.0
20260503200916 26 107 9.7 16.1 0.00 0.00 0.00 43 1014.1
20260503200817 26 109 9.7 16.1 0.00 0.00 0.00 43 1014.1
20260503200718 26 110 6.4 16.1 0.00 0.00 0.00 43 1014.1
20260503200618 26 159 3.2 6.4 0.00 0.00 0.00 41 1014.1
20260503200516 26 172 3.2 4.8 0.00 0.00 0.00 42 1014.1
20260503200416 26 175 3.2 6.4 0.00 0.00 0.00 38 1014.1
20260503200316 26 173 1.6 8.0 0.00 0.00 0.00 38 1014.2
20260503200217 26 168 3.2 9.7 0.00 0.00 0.00 38 1014.2
20260503200117 26 166 3.2 11.3 0.00 0.00 0.00 40 1014.2
20260503200018 26 106 1.6 11.3 0.00 0.00 0.00 39 1014.2
20260503195917 26 97 3.2 11.3 0.00 0.00 0.00 45 1014.1
20260503195816 26 72 3.2 11.3 0.00 0.00 0.00 45 1014.2
20260503195717 26 44 3.2 16.1 0.00 0.00 0.00 43 1014.2
20260503195616 26 44 3.2 16.1 0.00 0.00 0.00 42 1014.3
20260503195517 26 45 4.8 16.1 0.00 0.00 0.00 41 1014.3
20260503195415 26 49 6.4 16.1 0.00 0.00 0.00 41 1014.3
20260503195316 26 55 6.4 16.1 0.00 0.00 0.00 40 1014.3
20260503195217 26 86 6.4 16.1 0.00 0.00 0.00 41 1014.3
20260503195117 26 71 6.4 16.1 0.00 0.00 0.00 42 1014.3
20260503195017 26 103 6.4 16.1 0.00 0.00 0.00 42 1014.4
20260503194915 26 79 8.0 16.1 0.00 0.00 0.00 43 1014.3
20260503194815 26 103 9.7 16.1 0.00 0.00 0.00 43 1014.3
20260503194717 26 96 8.0 16.1 0.00 0.00 0.00 41 1014.4
20260503194617 26 111 6.4 11.3 0.00 0.00 0.00 40 1014.5
20260503194515 26 118 4.8 14.5 0.00 0.00 0.00 40 1014.4
20260503194417 26 166 3.2 14.5 0.00 0.00 0.00 40 1014.5
20260503194317 26 154 3.2 14.5 0.00 0.00 0.00 39 1014.4
20260503194215 26 152 4.8 14.5 0.00 0.00 0.00 42 1014.5
20260503194116 26 151 6.4 14.5 0.00 0.00 0.00 42 1014.5
20260503194016 26 118 3.2 14.5 0.00 0.00 0.00 42 1014.5
20260503193916 26 102 3.2 14.5 0.00 0.00 0.00 42 1014.5
20260503193817 26 92 4.8 14.5 0.00 0.00 0.00 39 1014.6
20260503193715 26 90 6.4 14.5 0.00 0.00 0.00 40 1014.6
20260503193615 26 104 8.0 14.5 0.00 0.00 0.00 40 1014.6
20260503193515 26 137 4.8 14.5 0.00 0.00 0.00 40 1014.6
20260503193416 26 161 3.2 14.5 0.00 0.00 0.00 42 1014.6
20260503193315 26 157 4.8 14.5 0.00 0.00 0.00 42 1014.6
20260503193215 26 135 8.0 14.5 0.00 0.00 0.00 42 1014.7
20260503193117 26 149 9.7 14.5 0.00 0.00 0.00 42 1014.7
20260503193017 26 104 8.0 14.5 0.00 0.00 0.00 42 1014.7
20260503192916 26 104 6.4 11.3 0.00 0.00 0.00 43 1014.7
20260503192815 26 107 4.8 11.3 0.00 0.00 0.00 41 1014.7
20260503192715 26 142 3.2 11.3 0.00 0.00 0.00 42 1014.7
20260503192617 26 111 4.8 11.3 0.00 0.00 0.00 40 1014.8
20260503192515 26 111 6.4 11.3 0.00 0.00 0.00 43 1014.7
20260503192415 26 151 6.4 11.3 0.00 0.00 0.00 42 1014.8
20260503192316 26 209 4.8 11.3 0.00 0.00 0.00 42 1014.8
20260503192216 26 76 3.2 16.1 0.00 0.00 0.00 42 1014.8
20260503192117 26 78 3.2 16.1 0.00 0.00 0.00 44 1014.9
20260503192016 26 78 3.2 16.1 0.00 0.00 0.00 45 1014.8
20260503191917 26 62 1.6 16.1 0.00 0.00 0.00 41 1014.8
20260503191816 26 85 4.8 16.1 0.00 0.00 0.00 41 1014.8
20260503191716 26 85 4.8 16.1 0.00 0.00 0.00 41 1014.8
20260503191615 26 85 4.8 16.1 0.00 0.00 0.00 41 1014.8
20260503191516 26 85 6.4 16.1 0.00 0.00 0.00 41 1014.8
20260503191417 26 102 6.4 16.1 0.00 0.00 0.00 44 1014.9
20260503191314 26 85 6.4 16.1 0.00 0.00 0.00 42 1014.9
20260503191216 26 76 4.8 16.1 0.00 0.00 0.00 39 1014.8
20260503191114 26 72 6.4 16.1 0.00 0.00 0.00 39 1014.9
20260503191015 26 73 6.4 16.1 0.00 0.00 0.00 44 1014.9
20260503190916 26 62 6.4 14.5 0.00 0.00 0.00 43 1015.0
20260503190815 26 82 9.7 14.5 0.00 0.00 0.00 44 1015.0
20260503190715 26 97 9.7 14.5 0.00 0.00 0.00 43 1015.0